KD8ZLZ Weather Reports


Display with metric or nautical units.
time (UTC)temp
F
wind
direction
speed
MPH
gust
MPH
rain 1hr
in
rain 24hr
in
rain mn
in
humidity
%
barometer
mb
20260506190034 53 326 5.0 8.0 0.00 0.00 0.00 41 1013.4
20260506185533 55 290 5.0 10.0 0.00 0.00 0.00 41 1013.4
20260506185033 56 259 4.0 7.0 0.00 0.00 0.00 42 1013.5
20260506184534 55 234 6.0 9.0 0.00 0.00 0.00 41 1013.5
20260506184054 55 250 4.0 7.0 0.00 0.00 0.00 42 1013.5
20260506183533 53 288 5.0 9.0 0.00 0.00 0.00 41 1013.4
20260506183053 53 304 6.0 10.0 0.00 0.00 0.00 42 1013.4
20260506182534 54 317 3.0 5.0 0.00 0.00 0.00 42 1013.8
20260506182033 54 302 4.0 8.0 0.00 0.00 0.00 43 1013.7
20260506181554 54 302 5.0 10.0 0.00 0.00 0.00 43 1013.7
20260506181033 54 263 4.0 7.0 0.00 0.00 0.00 43 1013.7
20260506180533 54 335 4.0 11.0 0.00 0.00 0.00 42 1013.7
20260506180054 53 304 5.0 9.0 0.00 0.00 0.00 41 1014.1
20260506175533 54 319 5.0 9.0 0.00 0.00 0.00 42 1014.1
20260506175054 53 325 5.0 10.0 0.00 0.00 0.00 42 1014.1
20260506174533 53 303 6.0 12.0 0.00 0.00 0.00 43 1014.1
20260506174114 53 259 6.0 11.0 0.00 0.00 0.00 43 1014.1
20260506173533 53 285 6.0 10.0 0.00 0.00 0.00 43 1013.7
20260506173033 52 306 5.0 10.0 0.00 0.00 0.00 42 1013.7
20260506172554 52 293 6.0 12.0 0.00 0.00 0.00 41 1013.7
20260506172033 52 301 6.0 10.0 0.00 0.00 0.00 41 1013.7
20260506171533 52 299 7.0 11.0 0.00 0.00 0.00 39 1013.7
20260506171055 53 279 6.0 12.0 0.00 0.01 0.00 39 1013.7
20260506170534 52 290 6.0 10.0 0.00 0.01 0.00 41 1013.7
20260506170034 52 300 6.0 10.0 0.00 0.01 0.00 42 1013.7
20260506165535 52 308 6.0 11.0 0.00 0.01 0.00 42 1013.7
20260506165033 53 287 6.0 10.0 0.00 0.01 0.00 43 1013.4
20260506164533 53 316 6.0 12.0 0.00 0.01 0.00 43 1013.4
20260506164034 53 294 6.0 10.0 0.00 0.01 0.00 42 1013.4
20260506163534 53 276 6.0 10.0 0.00 0.01 0.00 43 1013.4
20260506163034 53 282 4.0 8.0 0.00 0.01 0.00 42 1013.4
20260506162533 53 292 6.0 11.0 0.00 0.01 0.00 42 1013.4
20260506162033 53 270 6.0 13.0 0.00 0.01 0.00 42 1013.1
20260506161534 54 298 6.0 12.0 0.00 0.01 0.00 42 1013.1
20260506161033 54 284 5.0 8.0 0.00 0.01 0.00 40 1013.1
20260506160533 54 294 5.0 11.0 0.00 0.01 0.00 41 1013.1
20260506160033 54 278 6.0 10.0 0.00 0.01 0.00 42 1013.1
20260506155533 54 262 6.0 12.0 0.00 0.01 0.00 40 1013.1
20260506155033 54 254 5.0 12.0 0.00 0.01 0.00 41 1013.1
20260506154533 53 264 6.0 11.0 0.00 0.01 0.00 41 1013.1
20260506154033 53 303 7.0 12.0 0.00 0.01 0.00 40 1013.1
20260506153533 54 280 8.0 13.0 0.00 0.01 0.00 40 1012.8
20260506153033 54 262 6.0 12.0 0.00 0.01 0.00 41 1012.8
20260506152533 53 253 6.0 10.0 0.00 0.01 0.00 41 1012.7
20260506152033 52 277 6.0 10.0 0.00 0.01 0.00 40 1012.7
20260506151534 53 266 6.0 11.0 0.00 0.01 0.00 40 1012.7
20260506151033 53 307 6.0 11.0 0.00 0.01 0.00 40 1012.7
20260506150553 53 257 5.0 9.0 0.00 0.01 0.00 41 1012.8
20260506150053 54 302 6.0 10.0 0.00 0.01 0.00 41 1012.8
20260506145535 54 291 5.0 9.0 0.00 0.01 0.00 41 1012.8
20260506145033 54 264 5.0 10.0 0.00 0.01 0.00 41 1012.8
20260506144534 54 271 5.0 10.0 0.00 0.01 0.00 41 1012.8
20260506144033 53 304 5.0 10.0 0.00 0.01 0.00 41 1012.8
20260506143533 53 297 5.0 13.0 0.00 0.01 0.00 41 1012.8
20260506143033 54 322 4.0 6.0 0.00 0.01 0.00 43 1012.8
20260506142553 53 301 4.0 7.0 0.00 0.01 0.00 42 1012.8
20260506142033 53 314 5.0 8.0 0.00 0.01 0.00 42 1012.4
20260506141554 52 309 3.0 7.0 0.00 0.01 0.00 42 1012.4
20260506141034 53 302 5.0 9.0 0.00 0.01 0.00 43 1012.4
20260506140533 52 317 5.0 9.0 0.00 0.01 0.00 42 1012.4
20260506140033 53 287 4.0 10.0 0.00 0.01 0.00 44 1012.1
20260506135533 52 300 4.0 7.0 0.00 0.01 0.00 43 1012.1
20260506135033 52 309 5.0 10.0 0.00 0.01 0.00 43 1012.1
20260506134533 51 299 6.0 10.0 0.00 0.01 0.00 43 1012.1
20260506134033 51 293 5.0 8.0 0.00 0.01 0.00 45 1012.1
20260506133553 52 333 4.0 11.0 0.00 0.01 0.00 47 1012.1
20260506133054 52 281 3.0 5.0 0.00 0.01 0.00 49 1012.1
20260506132533 51 302 4.0 8.0 0.00 0.01 0.00 47 1012.1
20260506132033 51 294 4.0 7.0 0.00 0.01 0.00 48 1012.2
20260506131533 51 292 4.0 7.0 0.00 0.01 0.00 49 1012.2
20260506131033 51 235 3.0 7.0 0.00 0.01 0.00 52 1012.2
20260506130533 50 286 4.0 6.0 0.00 0.01 0.00 52 1011.8
20260506130054 50 290 5.0 7.0 0.00 0.01 0.00 50 1011.8
20260506125614 50 267 4.0 6.0 0.00 0.01 0.00 52 1011.8
20260506125033 50 255 4.0 7.0 0.00 0.01 0.00 53 1011.8
20260506124533 50 292 4.0 6.0 0.00 0.01 0.00 54 1011.4
20260506124034 50 290 3.0 5.0 0.00 0.01 0.00 56 1011.4
20260506123533 49 310 3.0 6.0 0.00 0.01 0.00 56 1011.4
20260506123033 49 318 3.0 5.0 0.00 0.01 0.00 56 1011.4
20260506122533 48 340 3.0 5.0 0.00 0.01 0.00 56 1011.4
20260506122053 48 339 2.0 5.0 0.00 0.01 0.00 56 1011.4
20260506121554 47 291 2.0 4.0 0.00 0.01 0.00 57 1011.4
20260506121034 46 320 2.0 5.0 0.00 0.01 0.00 57 1011.4
20260506120553 47 318 2.0 4.0 0.00 0.01 0.00 57 1011.4
20260506120034 47 315 3.0 7.0 0.00 0.01 0.00 56 1011.1
20260506115533 46 311 3.0 5.0 0.00 0.01 0.00 57 1011.1
20260506115033 46 309 2.0 5.0 0.00 0.01 0.00 57 1011.1
20260506114553 46 313 3.0 6.0 0.00 0.01 0.00 56 1011.1
20260506114053 46 339 3.0 6.0 0.00 0.01 0.00 56 1011.1
20260506113655 46 279 3.0 6.0 0.00 0.01 0.00 56 1010.7
20260506113033 46 264 2.0 5.0 0.00 0.01 0.00 57 1010.7
20260506112533 46 293 2.0 5.0 0.00 0.01 0.00 57 1010.7
20260506112054 46 339 3.0 7.0 0.00 0.01 0.00 57 1010.4
20260506111534 46 298 2.0 4.0 0.00 0.01 0.00 58 1010.4
20260506111033 46 301 2.0 4.0 0.00 0.01 0.00 57 1010.4
20260506110533 46 276 2.0 4.0 0.00 0.01 0.00 57 1010.4
20260506110034 46 283 2.0 3.0 0.00 0.01 0.00 58 1010.4
20260506105553 46 290 2.0 4.0 0.00 0.01 0.00 58 1010.0
20260506105053 46 320 2.0 4.0 0.00 0.01 0.00 57 1010.1
20260506104554 46 268 2.0 3.0 0.00 0.01 0.00 58 1010.1
20260506104033 47 291 2.0 5.0 0.00 0.01 0.00 57 1010.1
20260506103533 47 264 2.0 4.0 0.00 0.01 0.00 58 1010.1
20260506103033 47 277 2.0 5.0 0.00 0.01 0.00 57 1010.1
20260506102533 47 274 2.0 5.0 0.00 0.01 0.00 57 1010.1
20260506102034 47 261 2.0 5.0 0.00 0.01 0.00 57 1010.1
20260506101533 47 285 2.0 4.0 0.00 0.01 0.00 57 1010.1
20260506101033 47 320 2.0 4.0 0.00 0.01 0.00 57 1010.1
20260506100533 47 297 2.0 4.0 0.00 0.01 0.00 57 1010.1
20260506100033 47 259 2.0 4.0 0.00 0.01 0.00 57 1010.1
20260506095533 47 221 1.0 2.0 0.00 0.01 0.00 57 1009.8
20260506095033 47 265 1.0 2.0 0.00 0.01 0.00 56 1009.8
20260506094554 47 263 1.0 3.0 0.00 0.01 0.00 55 1009.8
20260506094033 47 217 1.0 3.0 0.00 0.01 0.00 56 1010.1
20260506093533 47 262 1.0 3.0 0.00 0.01 0.00 56 1009.8
20260506093033 47 306 1.0 3.0 0.00 0.01 0.00 57 1009.8
20260506092533 47 345 1.0 3.0 0.00 0.01 0.00 57 1009.8
20260506092053 48 343 2.0 4.0 0.00 0.01 0.00 56 1009.8
20260506091533 48 280 2.0 4.0 0.00 0.01 0.00 56 1009.4
20260506091033 48 282 2.0 5.0 0.00 0.01 0.00 57 1009.8
20260506090533 48 307 2.0 3.0 0.00 0.01 0.00 57 1009.8
20260506090033 48 334 2.0 4.0 0.00 0.01 0.00 57 1009.8
20260506085533 48 337 1.0 3.0 0.00 0.01 0.00 58 1009.8
20260506085033 48 332 1.0 3.0 0.00 0.01 0.00 57 1009.8
20260506084533 48 280 1.0 2.0 0.00 0.01 0.00 57 1009.8
20260506084033 48 353 2.0 4.0 0.00 0.01 0.00 56 1009.4
20260506083533 48 302 2.0 5.0 0.00 0.01 0.00 55 1009.4
20260506083034 48 296 2.0 4.0 0.00 0.01 0.00 56 1009.4
20260506082533 48 285 2.0 4.0 0.00 0.01 0.00 56 1009.4
20260506082033 48 288 2.0 4.0 0.00 0.01 0.00 57 1009.4
20260506081533 48 296 2.0 5.0 0.00 0.01 0.00 56 1009.4
20260506081033 48 326 3.0 5.0 0.00 0.01 0.00 57 1009.8
20260506080533 48 313 2.0 4.0 0.00 0.01 0.00 59 1009.8
20260506073033 48 211 2.0 2.0 0.00 0.01 0.00 66 1009.4
20260506072553 48 200 1.0 2.0 0.00 0.01 0.00 68 1009.4
20260506072033 48 197 1.0 2.0 0.00 0.01 0.00 70 1009.8
20260506071534 48 206 1.0 2.0 0.00 0.01 0.00 71 1009.7
20260506071033 48 190 1.0 2.0 0.00 0.01 0.00 70 1009.7
20260506070533 48 195 0.0 1.0 0.00 0.01 0.00 71 1009.7
20260506062034 47 201 2.0 3.0 0.00 0.01 0.00 83 1010.1
20260506061533 47 198 1.0 2.0 0.00 0.01 0.00 85 1009.8
20260506061053 47 207 1.0 3.0 0.00 0.01 0.00 85 1009.8
20260506060533 47 204 1.0 2.0 0.00 0.01 0.00 85 1009.8
20260506051033 48 208 2.0 3.0 0.00 0.02 0.00 80 1010.1
20260506050554 48 204 2.0 3.0 0.00 0.03 0.00 80 1010.1
20260506045033 48 198 2.0 2.0 0.00 0.07 0.00 79 1010.1
20260506044533 48 201 2.0 3.0 0.00 0.07 0.00 80 1009.8
20260506044053 48 187 1.0 2.0 0.00 0.07 0.00 80 1009.8
20260506043533 48 198 2.0 3.0 0.00 0.07 0.00 77 1010.2
20260506043054 48 199 2.0 3.0 0.00 0.08 0.00 76 1010.2
20260506042533 48 201 3.0 5.0 0.00 0.09 0.00 76 1010.2
20260506042033 48 203 2.0 4.0 0.00 0.09 0.00 76 1009.8
20260506041533 48 205 2.0 5.0 0.00 0.10 0.00 75 1009.5
20260506041033 48 192 2.0 2.0 0.00 0.10 0.00 75 1009.5
20260506040534 48 198 2.0 3.0 0.00 0.10 0.00 77 1009.5
20260506040053 47 199 2.0 3.0 0.00 0.10 0.00 79 1009.5
20260506035533 47 192 1.0 2.0 0.00 0.20 0.20 80 1009.5
20260506035033 48 190 1.0 2.0 0.00 0.20 0.20 81 1009.9
20260506034553 48 186 1.0 1.0 0.00 0.20 0.20 80 1009.9
20260506034053 48 181 1.0 2.0 0.00 0.20 0.20 79 1009.9
20260506033614 48 170 0.0 0.0 0.00 0.20 0.20 78 1009.9
20260506033033 48 171 0.0 0.0 0.00 0.20 0.20 76 1010.2
20260506032533 48 177 0.0 1.0 0.00 0.20 0.20 76 1010.2
20260506032033 48 179 0.0 1.0 0.00 0.20 0.20 75 1009.9
20260506031533 48 187 1.0 1.0 0.00 0.20 0.20 74 1009.9
20260506031113 48 184 0.0 1.0 0.00 0.20 0.20 72 1009.9
20260506030533 48 189 1.0 2.0 0.00 0.20 0.20 72 1010.3
20260506030033 48 186 1.0 1.0 0.00 0.20 0.20 71 1010.3
20260506025533 48 196 1.0 2.0 0.00 0.20 0.20 69 1009.9
20260506025033 48 192 1.0 2.0 0.00 0.20 0.20 69 1009.9
20260506024533 48 190 1.0 2.0 0.00 0.20 0.20 70 1010.0
20260506024053 48 187 1.0 2.0 0.00 0.20 0.20 75 1010.0
20260506023554 49 200 1.0 2.0 0.00 0.20 0.20 76 1010.0
20260506023033 49 206 1.0 2.0 0.00 0.20 0.20 73 1010.0
20260506022553 49 187 1.0 2.0 0.00 0.20 0.20 68 1010.0
20260506022033 49 182 1.0 2.0 0.00 0.20 0.20 68 1010.0
20260506021534 49 189 1.0 2.0 0.00 0.20 0.20 68 1010.0
20260506021033 49 181 0.0 1.0 0.00 0.20 0.20 70 1010.0
20260506020533 49 184 1.0 2.0 0.00 0.20 0.20 66 1009.6
20260506020053 49 186 1.0 2.0 0.00 0.20 0.20 67 1009.6
20260506015534 50 195 1.0 2.0 0.00 0.20 0.20 63 1009.3
20260506015033 50 198 1.0 2.0 0.00 0.20 0.20 62 1009.3
20260506014533 50 193 1.0 2.0 0.00 0.20 0.20 60 1009.3
20260506014033 50 185 1.0 2.0 0.00 0.20 0.20 61 1009.3
20260506013533 50 189 1.0 1.0 0.00 0.20 0.20 62 1009.3
20260506013033 51 188 1.0 2.0 0.00 0.20 0.20 64 1009.3
20260506012533 51 189 1.0 1.0 0.00 0.20 0.20 63 1009.3
20260506012053 51 194 1.0 2.0 0.00 0.20 0.20 57 1009.3
20260506011553 52 205 1.0 4.0 0.00 0.20 0.20 54 1009.3
20260506011033 52 259 2.0 4.0 0.00 0.20 0.20 52 1009.3
20260506010533 52 284 2.0 5.0 0.00 0.20 0.20 52 1009.3
20260506010033 53 250 2.0 4.0 0.00 0.20 0.20 52 1009.3
20260506005533 53 222 2.0 3.0 0.00 0.20 0.20 52 1009.3
20260506005053 53 255 2.0 4.0 0.00 0.20 0.20 53 1009.3
20260506004533 53 196 1.0 4.0 0.00 0.20 0.20 55 1009.3
20260506004033 53 192 1.0 2.0 0.00 0.20 0.20 54 1009.3
20260506003533 53 201 1.0 2.0 0.00 0.20 0.20 52 1009.3
20260506003033 53 213 1.0 2.0 0.00 0.20 0.20 51 1009.3
20260506002533 53 219 1.0 2.0 0.00 0.20 0.20 51 1009.3
20260506002033 53 226 1.0 2.0 0.00 0.20 0.20 50 1009.3
20260506001634 53 212 1.0 2.0 0.00 0.20 0.20 52 1008.9
20260506001033 54 223 1.0 2.0 0.00 0.20 0.20 50 1008.6
20260506000533 54 284 3.0 5.0 0.00 0.20 0.20 47 1008.6
20260506000033 54 272 2.0 3.0 0.00 0.20 0.20 48 1008.6
20260505235533 54 263 3.0 5.0 0.00 0.20 0.20 47 1008.6
20260505235033 54 268 3.0 6.0 0.00 0.20 0.20 49 1008.6
20260505234533 54 284 3.0 4.0 0.00 0.20 0.20 49 1008.6
20260505234053 54 285 3.0 5.0 0.00 0.20 0.20 48 1008.6
20260505233533 54 283 3.0 5.0 0.00 0.20 0.20 50 1008.6
20260505233033 54 228 2.0 4.0 0.00 0.20 0.20 52 1008.6
20260505232533 54 256 3.0 6.0 0.00 0.20 0.20 51 1008.6
20260505232053 55 281 3.0 5.0 0.00 0.20 0.20 52 1008.6
20260505231533 55 285 3.0 7.0 0.00 0.20 0.20 53 1009.0
20260505231033 55 290 4.0 7.0 0.00 0.20 0.20 52 1009.0
20260505230533 55 274 2.0 4.0 0.00 0.20 0.20 54 1008.7
20260505230032 55 290 3.0 5.0 0.00 0.20 0.20 54 1008.7
20260505225533 55 267 3.0 5.0 0.00 0.20 0.20 54 1008.7
20260505225033 55 269 4.0 6.0 0.00 0.20 0.20 55 1008.7
20260505224534 55 284 4.0 6.0 0.00 0.20 0.20 56 1008.7
20260505224033 55 288 4.0 7.0 0.00 0.20 0.20 58 1008.7
20260505223532 56 273 2.0 5.0 0.00 0.20 0.20 60 1008.7
20260505223053 56 264 2.0 4.0 0.00 0.20 0.20 60 1008.7
20260505222534 56 287 2.0 5.0 0.00 0.20 0.20 61 1008.7
20260505222033 56 287 3.0 5.0 0.00 0.20 0.20 60 1009.1
20260505221553 56 275 3.0 5.0 0.00 0.20 0.20 61 1009.1
20260505221032 56 223 3.0 5.0 0.00 0.20 0.20 61 1008.7
20260505220553 56 264 3.0 5.0 0.00 0.20 0.20 61 1008.7
20260505220033 56 238 3.0 6.0 0.00 0.20 0.20 61 1008.7
20260505215534 56 218 3.0 4.0 0.00 0.20 0.20 62 1008.7
20260505215033 56 281 3.0 6.0 0.00 0.20 0.20 63 1008.7
20260505214533 56 211 2.0 3.0 0.00 0.20 0.20 63 1008.7
20260505214032 55 216 3.0 5.0 0.00 0.20 0.20 64 1008.7
20260505213533 55 224 2.0 4.0 0.00 0.20 0.20 64 1008.7
20260505213033 55 220 2.0 4.0 0.00 0.20 0.20 65 1008.7
20260505212533 55 213 2.0 5.0 0.00 0.20 0.20 64 1008.7
20260505212033 55 205 2.0 4.0 0.00 0.20 0.20 64 1009.1
20260505211533 55 208 2.0 4.0 0.00 0.20 0.20 65 1009.1
20260505211053 55 239 3.0 4.0 0.00 0.20 0.20 63 1009.1
20260505210533 55 242 4.0 7.0 0.00 0.20 0.20 63 1009.1
20260505210033 55 221 3.0 6.0 0.00 0.20 0.20 63 1009.1
20260505205532 55 246 3.0 6.0 0.00 0.20 0.20 63 1009.0
20260505205033 55 228 3.0 5.0 0.00 0.20 0.20 63 1009.0
20260505204533 55 251 4.0 7.0 0.00 0.20 0.20 63 1009.0
20260505204033 55 259 3.0 6.0 0.00 0.20 0.20 63 1009.0
20260505203533 55 218 3.0 8.0 0.00 0.20 0.20 63 1009.4
20260505203052 55 235 3.0 5.0 0.00 0.20 0.20 64 1009.4
20260505202533 55 214 5.0 9.0 0.00 0.20 0.20 63 1009.4
20260505202033 55 216 5.0 8.0 0.00 0.20 0.20 62 1009.4
20260505201534 55 216 4.0 7.0 0.00 0.20 0.20 62 1009.4
20260505201033 55 230 5.0 9.0 0.00 0.20 0.20 61 1009.4
20260505200553 56 230 4.0 7.0 0.00 0.20 0.20 62 1009.4
20260505200053 55 256 4.0 6.0 0.00 0.20 0.20 61 1009.4
20260505195553 55 252 5.0 10.0 0.00 0.20 0.20 61 1009.4
20260505195033 55 227 5.0 10.0 0.00 0.20 0.20 61 1009.4
20260505194613 55 244 4.0 9.0 0.00 0.20 0.20 61 1009.4
20260505194033 55 232 5.0 6.0 0.00 0.20 0.20 62 1009.4
20260505193533 55 234 5.0 8.0 0.00 0.20 0.20 61 1009.4
20260505193033 55 234 6.0 13.0 0.00 0.20 0.20 60 1009.4
20260505192533 55 238 5.0 9.0 0.00 0.20 0.20 60 1009.4
20260505192033 56 270 5.0 9.0 0.00 0.20 0.20 59 1009.7
20260505191533 55 245 7.0 10.0 0.00 0.20 0.20 60 1009.7
20260505191053 54 241 5.0 9.0 0.00 0.20 0.20 61 1009.7
20260505190533 54 242 6.0 11.0 0.00 0.20 0.20 64 1009.4